TimeEST,TemperatureF,Dew PointF,Humidity,Sea Level PressureIn,VisibilityMPH,Wind Direction,Wind SpeedMPH,Gust SpeedMPH,PrecipitationIn,Events,Conditions,WindDirDegrees,DateUTC
12:12 AM,55.4,51.8,88,29.89,6.0,West,11.5,21.9,N/A,,Overcast,280,2012-12-05 05:12:00
12:38 AM,53.6,51.8,94,29.89,6.0,WSW,5.8,-,0.00,Rain,Light Rain,250,2012-12-05 05:38:00
12:51 AM,53.1,50.0,89,29.90,7.0,West,9.2,-,0.00,Rain,Light Rain,270,2012-12-05 05:51:00
1:12 AM,51.8,48.2,88,29.90,8.0,West,11.5,-,0.01,Rain,Light Rain,260,2012-12-05 06:12:00
1:51 AM,50.0,46.0,86,29.93,10.0,West,12.7,19.6,0.01,Rain,Light Rain,270,2012-12-05 06:51:00
2:51 AM,48.9,45.0,86,29.94,10.0,WNW,3.5,-,0.06,Rain,Light Rain,300,2012-12-05 07:51:00
3:51 AM,48.0,43.0,83,29.95,7.0,WNW,8.1,-,0.02,Rain,Light Rain,300,2012-12-05 08:51:00
4:51 AM,46.9,43.0,86,29.96,10.0,Calm,Calm,-,0.02,,Mostly Cloudy,0,2012-12-05 09:51:00
5:51 AM,43.0,39.9,89,29.97,10.0,Calm,Calm,-,N/A,,Scattered Clouds,0,2012-12-05 10:51:00
6:51 AM,44.1,37.9,79,29.98,10.0,West,9.2,-,N/A,,Scattered Clouds,280,2012-12-05 11:51:00
7:51 AM,45.0,37.0,74,29.99,10.0,WNW,11.5,-,N/A,,Scattered Clouds,290,2012-12-05 12:51:00
9:51 AM,45.0,36.0,71,30.02,10.0,WNW,17.3,26.5,N/A,,Scattered Clouds,290,2012-12-05 14:51:00
10:21 AM,46.4,35.6,66,30.04,10.0,WNW,25.3,34.5,N/A,,Mostly Cloudy,290,2012-12-05 15:21:00
10:44 AM,44.6,33.8,66,30.03,10.0,WNW,21.9,27.6,N/A,,Mostly Cloudy,300,2012-12-05 15:44:00
10:51 AM,44.6,33.8,66,30.03,10.0,WNW,23.0,32.2,N/A,,Mostly Cloudy,290,2012-12-05 15:51:00
11:51 AM,41.0,28.0,60,30.06,10.0,WNW,21.9,36.8,N/A,,Overcast,290,2012-12-05 16:51:00
12:51 PM,39.9,27.0,60,30.07,10.0,West,19.6,29.9,N/A,,Overcast,280,2012-12-05 17:51:00
1:51 PM,39.0,23.0,53,30.08,10.0,WNW,20.7,31.1,N/A,,Overcast,290,2012-12-05 18:51:00
2:51 PM,37.9,26.1,62,30.10,10.0,WNW,15.0,-,0.00,,Mostly Cloudy,290,2012-12-05 19:51:00
3:51 PM,37.0,25.0,62,30.13,10.0,WNW,17.3,20.7,N/A,,Mostly Cloudy,300,2012-12-05 20:51:00
4:51 PM,36.0,25.0,64,30.14,10.0,West,11.5,17.3,N/A,,Mostly Cloudy,280,2012-12-05 21:51:00
5:51 PM,36.0,19.9,52,30.16,10.0,WNW,9.2,-,N/A,,Mostly Cloudy,300,2012-12-05 22:51:00
6:51 PM,34.0,18.0,52,30.18,10.0,WNW,12.7,-,N/A,,Scattered Clouds,300,2012-12-05 23:51:00
7:51 PM,34.0,21.0,59,30.22,10.0,NW,13.8,23.0,N/A,,Mostly Cloudy,310,2012-12-06 00:51:00
8:51 PM,32.0,17.1,54,30.23,10.0,NW,12.7,-,N/A,,Mostly Cloudy,320,2012-12-06 01:51:00
9:51 PM,30.9,14.0,50,30.26,10.0,NNW,17.3,27.6,N/A,,Mostly Cloudy,340,2012-12-06 02:51:00
10:51 PM,28.0,14.0,56,30.27,10.0,NW,9.2,-,N/A,,Partly Cloudy,320,2012-12-06 03:51:00
11:51 PM,28.0,14.0,56,30.27,10.0,NW,9.2,-,N/A,,Partly Cloudy,310,2012-12-06 04:51:00